Retour au catalogue

STARLINK-2329

ActifCommunicationsVLEO
NORAD 47873·PAYLOAD·🇺🇸 United States

Lancé Mar 14, 2021 depuis Cape Canaveral Space Force Station

Loading…

Prochains Passages (prochaines 24 heures)

TLE

FraisSource: CelesTrak SupGP

Époque: Sep 14, 2026, 20:23 UTC

1 47873C 21021P   26257.84979167 -.00007967  00000+0 -25627-3 0  2570
2 47873  53.1578  95.1194 0001397  85.4705 287.4563 15.31696447    10

Suivez STARLINK-2329 en temps réel avec AllMySat

Download on the App Store